Location: Dead Woman Crossing
(43.5369°N, 106.3228°W)
Time: 09:57:10
(UTC+00:00)

ITAMSAT 1 - Visible Passes

Search period start: 29 June 2022 00:00
Search period end: 09 July 2022 00:00
Orbit: 783 x 796 km, 98.9° (Epoch: 28 June)

Date Brightness Start Highest point End Pass type
(mag) Time Alt. Az. Time Alt. Az. Time Alt. Az.
29 Jun 10.5 03:43:39 10° WSW 03:45:29 12° W 03:47:21 10° WNW visible
03 Jul 10.2 03:23:00 10° SW 03:26:29 18° W 03:30:01 10° NW visible
06 Jul 10.3 03:34:37 10° WSW 03:37:25 15° W 03:40:15 10° WNW visible
